"TOA5","MOW","CPU:UNC_MeetingWaters","DataHourly"
"TIMESTAMP","SondeTempC","SpCond","DOSat","DOmg","pH","Turb","BattVolt_Min"
"TS","","","","","","",""
"","Smp","Smp","Smp","Smp","Smp","Smp","Min"
"2002-07-01 00:00:00",23.1700000763,0.103000000119,64.4000015259,5.5,7.26000022888,27.1000003815,12.6000003815
"2002-07-01 01:00:00",22.9300003052,0.103000000119,60.7999992371,5.21999979019,7.28999996185,26.7999992371,12.5799999237
"2002-07-01 02:00:00",22.6499996185,0.10000000149,57.5999984741,4.98000001907,7.28999996185,26.5,12.5699996948
"2002-07-01 03:00:00",22.4400005341,0.101999998093,53.5999984741,4.65000009537,7.28999996185,26.8999996185,12.5399999619
"2002-07-01 04:00:00",22.2099990845,0.103000000119,49.7000007629,4.32000017166,7.28000020981,24.2999992371,12.529999733
"2002-07-01 05:00:00",22.0100002289,0.0949999988079,47.0,4.11000013351,7.30999994278,27.3999996185,12.5100002289
"2002-07-01 06:00:00",21.8600006104,0.101999998093,43.2999992371,3.79999995232,7.32000017166,24.7999992371,12.4899997711
"2002-07-01 07:00:00",21.7000007629,0.0939999967813,41.0,3.59999990463,7.34999990463,22.6000003815,12.4600000381
"2002-07-01 08:00:00",21.6700000763,0.0939999967813,38.4000015259,3.36999988556,7.38000011444,20.8999996185,12.4899997711
"2002-07-01 09:00:00",21.7800006866,0.0960000008345,35.9000015259,3.15000009537,7.40000009537,22.7999992371,12.6400003433
"2002-07-01 10:00:00",22.0900001526,0.101000003517,34.0,2.97000002861,7.42000007629,18.7999992371,13.1800003052
"2002-07-01 11:00:00",22.5599994659,0.111000001431,32.2000007629,2.77999997139,7.44000005722,19.0,13.0799999237
"2002-07-01 12:00:00",23.2299995422,0.111000001431,30.8999996185,2.6400001049,7.46999979019,16.8999996185,13.0100002289
"2002-07-01 13:00:00",23.8600006104,0.109999999404,29.6000003815,2.5,7.48999977112,15.8999996185,12.9600000381
"2002-07-01 14:00:00",24.1599998474,0.111000001431,28.2999992371,2.38000011444,7.48000001907,16.3999996185,12.9099998474
"2002-07-01 15:00:00",24.1000003815,0.109999999404,26.5,2.23000001907,7.46999979019,15.3999996185,12.75
"2002-07-01 16:00:00",23.8199996948,0.109999999404,24.7000007629,2.07999992371,7.44000005722,14.1999998093,12.7700004578
"2002-07-01 17:00:00",23.6700000763,0.109999999404,23.0,1.95000004768,7.42999982834,15.8000001907,12.75
"2002-07-01 18:00:00",23.6200008392,0.109999999404,21.6000003815,1.83000004292,7.42000007629,26.6000003815,12.8100004196
"2002-07-01 19:00:00",23.6499996185,0.108999997377,20.2000007629,1.71000003815,7.38999986649,35.4000015259,12.6899995804
"2002-07-01 20:00:00",23.6200008392,0.108000002801,18.8999996185,1.61000001431,7.36999988556,35.2000007629,12.6499996185
"2002-07-01 21:00:00",23.5200004578,0.108000002801,17.7999992371,1.50999999046,7.34999990463,30.6000003815,12.6300001144
"2002-07-01 22:00:00",23.3799991608,0.108999997377,16.7000007629,1.42999994755,7.32999992371,24.8999996185,12.6300001144
"2002-07-01 23:00:00",23.2299995422,0.108999997377,15.8000001907,1.35000002384,7.34000015259,22.2000007629,12.6199998856
"2002-07-02 00:00:00",23.0900001526,0.111000001431,15.0,1.27999997139,7.34999990463,22.0,12.6000003815
"2002-07-02 01:00:00",22.9500007629,0.112000003457,14.1999998093,1.22000002861,7.36999988556,19.7999992371,12.5799999237
"2002-07-02 02:00:00",22.8299999237,0.112000003457,13.5,1.15999996662,7.38000011444,20.6000003815,12.5699996948
"2002-07-02 03:00:00",22.6900005341,0.112000003457,12.8999996185,1.11000001431,7.38999986649,19.2999992371,12.5500001907
"2002-07-02 04:00:00",22.5599994659,0.112000003457,12.3000001907,1.05999994278,7.40000009537,18.7000007629,12.5200004578
"2002-07-02 05:00:00",22.4500007629,0.11400000006,11.6999998093,1.01999998093,7.40999984741,17.8999996185,12.5
"2002-07-02 06:00:00",22.3199996948,0.115000002086,11.3000001907,0.980000019073,7.42999982834,18.0,12.470000267
"2002-07-02 07:00:00",22.2199993134,0.115999996662,10.8000001907,0.939999997616,7.42999982834,20.5,12.470000267
"2002-07-02 08:00:00",22.2099990845,0.115999996662,10.5,0.910000026226,7.42999982834,22.2999992371,12.4799995422
"2002-07-02 09:00:00",22.3199996948,0.116999998689,10.1000003815,0.879999995232,7.42999982834,21.2000007629,12.6599998474
"2002-07-02 10:00:00",22.5599994659,0.118000000715,9.89999961853,0.860000014305,7.46000003815,19.0,13.1499996185
"2002-07-02 11:00:00",23.0,0.119000002742,9.80000019073,0.839999973774,7.48999977112,17.2000007629,13.0699996948
"2002-07-02 12:00:00",23.7199993134,0.119999997318,9.69999980927,0.819999992847,7.51999998093,15.8000001907,13.0
"2002-07-02 13:00:00",24.2900009155,0.120999999344,9.5,0.800000011921,7.5,14.8999996185,12.9600000381
"2002-07-02 14:00:00",24.8099994659,0.120999999344,9.39999961853,0.77999997139,7.53000020981,14.1999998093,12.9300003052
"2002-07-02 15:00:00",24.9300003052,0.120999999344,9.0,0.75,7.48999977112,14.0,12.7600002289
"2002-07-02 16:00:00",26.0900001526,0.0640000030398,8.10000038147,0.649999976158,7.34000015259,1481.0,12.7100000381
"2002-07-02 17:00:00",25.0499992371,0.0230000000447,6.09999990463,0.5,6.76000022888,432.700012207,12.779999733
"2002-07-02 18:00:00",24.8600006104,0.0280000008643,6.09999990463,0.509999990463,6.67000007629,303.200012207,12.8299999237
"2002-07-02 19:00:00",24.6900005341,0.0320000015199,6.40000009537,0.52999997139,6.73000001907,236.899993896,12.7100000381
"2002-07-02 20:00:00",24.4799995422,0.0359999984503,6.40000009537,0.52999997139,6.75,155.0,12.6300001144
"2002-07-02 21:00:00",24.2800006866,0.0390000008047,6.19999980927,0.519999980927,6.80000019073,124.599998474,12.6199998856
"2002-07-02 22:00:00",24.1000003815,0.0419999994338,6.0,0.509999990463,6.84000015259,97.9000015259,12.6099996567
"2002-07-02 23:00:00",25.2600002289,0.0419999994338,5.5,0.449999988079,7.09000015259,119.199996948,12.6000003815
"2002-07-03 00:00:00",24.9699993134,0.0399999991059,4.09999990463,0.340000003576,6.88000011444,167.600006104,12.6000003815
"2002-07-03 01:00:00",24.7099990845,0.0399999991059,4.09999990463,0.340000003576,6.71000003815,129.600006104,12.5900001526
"2002-07-03 02:00:00",24.3899993896,0.0419999994338,4.30000019073,0.360000014305,6.65999984741,109.300003052,12.5699996948
"2002-07-03 03:00:00",24.0900001526,0.0430000014603,4.30000019073,0.360000014305,6.63999986649,106.599998474,12.5399999619
"2002-07-03 04:00:00",23.8199996948,0.0450000017881,4.30000019073,0.370000004768,6.69000005722,97.5,12.5200004578
"2002-07-03 05:00:00",23.5499992371,0.0469999983907,4.30000019073,0.370000004768,6.76000022888,71.0,12.4899997711
"2002-07-03 06:00:00",23.3199996948,0.0489999987185,4.30000019073,0.360000014305,6.82999992371,52.0,12.470000267
"2002-07-03 07:00:00",23.1399993896,0.0520000010729,4.30000019073,0.370000004768,6.90999984741,41.2999992371,12.4499998093
"2002-07-03 08:00:00",23.0499992371,0.0540000014007,4.19999980927,0.360000014305,6.98999977112,34.2999992371,12.4899997711
"2002-07-03 09:00:00",23.0900001526,0.0560000017285,4.0,0.340000003576,7.05000019073,29.1000003815,12.7100000381
"2002-07-03 10:00:00",23.25,0.0560000017285,3.79999995232,0.330000013113,7.09000015259,26.8999996185,13.1499996185
"2002-07-03 11:00:00",23.5499992371,0.0579999983311,3.79999995232,0.319999992847,7.13999986649,23.6000003815,13.1000003815
"2002-07-03 12:00:00",24.0599994659,0.0590000003576,3.79999995232,0.319999992847,7.17000007629,21.2000007629,13.0500001907
"2002-07-03 13:00:00",24.5699996948,0.0610000006855,3.79999995232,0.319999992847,7.19999980927,19.5,13.0100002289
"2002-07-03 14:00:00",-6999.0,0.0610000006855,3.79999995232,0.319999992847,7.19999980927,19.5,12.970000267
"2002-07-03 15:00:00",-6999.0,0.0610000006855,3.79999995232,0.319999992847,7.19999980927,19.5,12.9499998093
"2002-07-03 16:00:00",25.2900009155,0.156000003219,92.0999984741,7.57000017166,5.57000017166,11.0,12.9300003052
"2002-07-03 17:00:00",25.3199996948,0.165000006557,90.0999984741,7.40000009537,6.44999980927,9.80000019073,12.8299999237
"2002-07-03 18:00:00",25.1200008392,0.165000006557,87.0999984741,7.17000007629,6.67999982834,9.0,12.7399997711
"2002-07-03 19:00:00",24.9200000763,0.312000006437,85.9000015259,7.11000013351,6.78000020981,9.30000019073,12.6899995804
"2002-07-03 20:00:00",24.75,0.234999999404,86.0,7.13000011444,6.82000017166,8.5,12.6700000763
"2002-07-03 21:00:00",24.5599994659,0.182999998331,85.1999969482,7.09999990463,6.86999988556,7.90000009537,12.6599998474
"2002-07-03 22:00:00",24.3099994659,0.181999996305,85.1999969482,7.13000011444,6.88999986649,8.0,12.6499996185
"2002-07-03 23:00:00",24.0400009155,0.185000002384,85.4000015259,7.17999982834,6.88999986649,7.69999980927,12.6199998856
"2002-07-04 00:00:00",23.8099994659,0.189999997616,85.8000030518,7.25,6.90000009537,7.30000019073,12.6099996567
"2002-07-04 01:00:00",23.6100006104,0.194000005722,86.1999969482,7.30000019073,6.90000009537,6.90000009537,12.5900001526
"2002-07-04 02:00:00",23.4500007629,0.0130000002682,85.6999969482,7.28999996185,6.92999982834,5.59999990463,12.5699996948
"2002-07-04 03:00:00",23.2900009155,0.00200000009499,85.5,7.30000019073,6.94999980927,4.40000009537,12.5600004196
"2002-07-04 04:00:00",23.1399993896,0.21400000155,85.8000030518,7.34000015259,6.92999982834,5.19999980927,12.529999733
"2002-07-04 05:00:00",22.9799995422,0.00200000009499,86.6999969482,7.44000005722,6.94999980927,3.90000009537,12.5100002289
"2002-07-04 06:00:00",22.8299999237,0.0010000000475,86.5999984741,7.46000003815,6.96999979019,3.29999995232,12.4899997711
"2002-07-04 07:00:00",22.6700000763,0.0010000000475,87.0,7.51000022888,6.98999977112,1.79999995232,12.470000267
"2002-07-04 08:00:00",22.6499996185,0.0010000000475,87.6999969482,7.57000017166,7.01999998093,1.60000002384,12.4899997711
"2002-07-04 09:00:00",22.7600002289,0.21400000155,89.4000015259,7.69999980927,7.01999998093,1.70000004768,12.7100000381
"2002-07-04 10:00:00",22.9500007629,0.21099999547,90.6999969482,7.78999996185,7.01999998093,1.29999995232,12.9399995804
"2002-07-04 11:00:00",23.3299999237,0.209000006318,92.9000015259,7.92000007629,7.03999996185,1.39999997616,13.0600004196
"2002-07-04 12:00:00",24.0200004578,0.201000005007,94.4000015259,7.94000005722,7.05999994278,1.39999997616,12.9899997711
"2002-07-04 13:00:00",24.4899997711,0.188999995589,95.9000015259,8.0,7.07999992371,1.29999995232,12.9499998093
"2002-07-04 14:00:00",24.9699993134,0.186000004411,96.3000030518,7.96000003815,7.09000015259,1.39999997616,12.9099998474
"2002-07-04 15:00:00",25.2999992371,0.180999994278,96.5999984741,7.92999982834,7.07999992371,3.59999990463,12.8900003433
"2002-07-04 16:00:00",25.3400001526,0.181999996305,95.0,7.80000019073,7.07999992371,6.30000019073,12.8800001144
"2002-07-04 17:00:00",26.1200008392,0.282000005245,87.5999984741,7.09000015259,6.94000005722,16.2999992371,12.720000267
"2002-07-04 18:00:00",25.4300003052,0.32800000906,87.0999984741,7.13999986649,6.98999977112,20.5,12.6700000763
"2002-07-04 19:00:00",25.3400001526,0.217999994755,87.0,7.13999986649,6.80000019073,57.5999984741,12.6499996185
"2002-07-04 20:00:00",24.8400001526,0.20000000298,81.6999969482,6.76999998093,6.73000001907,41.9000015259,12.6099996567
"2002-07-04 21:00:00",24.6100006104,0.181999996305,78.0999984741,6.5,6.61999988556,38.7000007629,12.6000003815
"2002-07-04 22:00:00",24.3299999237,0.108999997377,76.5999984741,6.40000009537,6.55999994278,30.2999992371,12.5799999237
"2002-07-04 23:00:00",24.0200004578,0.107000000775,76.5,6.44000005722,6.59000015259,22.7999992371,12.5699996948
"2002-07-05 00:00:00",23.7299995422,0.119999997318,77.4000015259,6.53999996185,6.59999990463,18.6000003815,12.5399999619
"2002-07-05 01:00:00",23.4699993134,0.123999997973,78.9000015259,6.71000003815,6.59000015259,14.3999996185,12.5200004578
"2002-07-05 02:00:00",23.25,0.0949999988079,79.6999969482,6.80999994278,6.63000011444,10.6000003815,12.5
"2002-07-05 03:00:00",23.0400009155,0.00400000018999,80.3000030518,6.88000011444,6.73000001907,7.40000009537,12.4799995422
"2002-07-05 04:00:00",22.8700008392,0.00300000002608,80.9000015259,6.96000003815,6.73999977112,6.0,12.4600000381
"2002-07-05 05:00:00",22.7000007629,0.0750000029802,81.6999969482,7.05000019073,6.78000020981,5.59999990463,12.4399995804
"2002-07-05 06:00:00",22.5400009155,0.195999994874,83.1999969482,7.19999980927,6.80000019073,3.70000004768,12.4399995804
"2002-07-05 07:00:00",22.4300003052,0.00300000002608,84.5,7.32999992371,6.84000015259,2.70000004768,12.4399995804
"2002-07-05 08:00:00",22.3899993896,0.00499999988824,85.5,7.42000007629,6.86000013351,1.29999995232,12.4399995804
"2002-07-05 09:00:00",22.5400009155,0.215000003576,86.6999969482,7.5,6.92000007629,1.0,12.6499996185
"2002-07-05 10:00:00",22.75,0.381999999285,89.0999984741,7.67000007629,6.92000007629,2.90000009537,13.1300001144
"2002-07-05 11:00:00",23.1599998474,0.34999999404,93.0999984741,7.94999980927,7.0,2.90000009537,13.0600004196
"2002-07-05 12:00:00",23.7900009155,0.222000002861,95.0999984741,8.02999973297,7.01999998093,3.79999995232,12.9899997711
"2002-07-05 13:00:00",24.3600006104,0.204999998212,95.3000030518,7.96000003815,7.01999998093,4.80000019073,12.9399995804
"2002-07-05 14:00:00",25.0100002289,0.237000003457,94.5999984741,7.80999994278,7.01000022888,3.79999995232,12.9099998474
"2002-07-05 15:00:00",25.4799995422,0.31400001049,94.1999969482,7.71000003815,7.03000020981,3.09999990463,12.8800001144
"2002-07-05 16:00:00",25.6900005341,0.344999998808,92.0999984741,7.51000022888,7.03999996185,3.09999990463,12.8100004196
"2002-07-05 17:00:00",25.6800003052,0.331000000238,90.8000030518,7.40000009537,7.03999996185,5.19999980927,12.8699998856
"2002-07-05 18:00:00",25.6499996185,0.261000007391,88.6999969482,7.23999977112,7.0,5.90000009537,12.7399997711
"2002-07-05 19:00:00",25.5599994659,0.241999998689,86.0999984741,7.03999996185,6.98000001907,5.0,12.6800003052
"2002-07-05 20:00:00",25.4400005341,0.230000004172,85.4000015259,7.0,6.94999980927,5.19999980927,12.6599998474
"2002-07-05 21:00:00",25.2399997711,0.215000003576,85.5999984741,7.03999996185,6.92000007629,5.40000009537,12.6300001144
"2002-07-05 22:00:00",24.9899997711,0.206000000238,86.3000030518,7.13000011444,6.96000003815,6.0,12.6199998856
"2002-07-05 23:00:00",24.6700000763,0.208000004292,87.5,7.26999998093,6.96999979019,5.80000019073,12.6099996567
"2002-07-06 00:00:00",24.3999996185,0.207000002265,87.5,7.30999994278,7.0,4.69999980927,12.5799999237
"2002-07-06 01:00:00",24.1100006104,0.00800000037998,87.8000030518,7.38000011444,7.05000019073,4.19999980927,12.5699996948
"2002-07-06 02:00:00",23.8799991608,0.00300000002608,88.0,7.42999982834,7.03000020981,4.19999980927,12.5500001907
"2002-07-06 03:00:00",23.6800003052,0.00200000009499,88.3000030518,7.48000001907,7.03999996185,4.5,12.529999733
"2002-07-06 04:00:00",23.4899997711,0.0219999998808,88.4000015259,7.51999998093,7.05000019073,3.40000009537,12.5100002289
"2002-07-06 05:00:00",23.3299999237,0.209999993443,89.0999984741,7.59000015259,7.03000020981,4.5,12.4799995422
"2002-07-06 06:00:00",23.1599998474,0.00200000009499,89.6999969482,7.67000007629,7.05999994278,2.40000009537,12.470000267
"2002-07-06 07:00:00",23.0499992371,0.00200000009499,89.4000015259,7.67000007629,7.07000017166,1.10000002384,12.4499998093
"2002-07-06 08:00:00",23.0300006866,0.00200000009499,89.3000030518,7.65999984741,7.07999992371,0.300000011921,12.470000267
"2002-07-06 09:00:00",23.0100002289,0.00200000009499,90.5999984741,7.76999998093,7.09999990463,0.20000000298,12.5399999619
"2002-07-06 10:00:00",23.1200008392,0.197999998927,92.0999984741,7.88000011444,7.09999990463,1.20000004768,13.0500001907
"2002-07-06 11:00:00",23.3999996185,0.194000005722,95.5999984741,8.13000011444,7.13000011444,0.600000023842,13.0699996948
"2002-07-06 12:00:00",23.9599990845,0.193000003695,97.1999969482,8.18999958038,7.17999982834,0.0,13.0200004578
"2002-07-06 13:00:00",24.4400005341,0.187999993563,97.6999969482,8.14999961853,7.21999979019,-0.10000000149,12.9799995422
"2002-07-06 14:00:00",24.8299999237,0.196999996901,97.9000015259,8.10999965668,7.23000001907,0.699999988079,12.970000267
"2002-07-06 15:00:00",25.0799999237,0.194000005722,97.3000030518,8.02999973297,7.23999977112,2.70000004768,12.9399995804
"2002-07-06 16:00:00",25.0799999237,0.194000005722,96.0,7.92000007629,7.21000003815,4.19999980927,12.9099998474
"2002-07-06 17:00:00",24.8600006104,0.199000000954,94.4000015259,7.82000017166,7.19999980927,6.80000019073,12.8299999237
"2002-07-06 18:00:00",24.6900005341,0.193000003695,93.4000015259,7.76000022888,7.17000007629,8.0,12.779999733
"2002-07-06 19:00:00",24.5300006866,0.185000002384,91.8000030518,7.65000009537,7.13999986649,9.0,12.6999998093
"2002-07-06 20:00:00",24.3799991608,0.185000002384,91.0999984741,7.61000013351,7.09999990463,9.80000019073,12.6599998474
"2002-07-06 21:00:00",24.1399993896,0.0270000007004,90.5999984741,7.61000013351,7.09000015259,9.60000038147,12.6400003433
"2002-07-06 22:00:00",23.8400001526,0.173999994993,90.1999969482,7.61000013351,7.07000017166,8.60000038147,12.6199998856
"2002-07-06 23:00:00",23.4400005341,0.00400000018999,90.4000015259,7.69000005722,7.09000015259,9.0,12.6000003815
"2002-07-07 00:00:00",23.0599994659,0.170000001788,90.5,7.75,7.07000017166,9.69999980927,12.5799999237
"2002-07-07 01:00:00",22.5900001526,0.170000001788,91.5999984741,7.92000007629,7.05000019073,11.5,12.5600004196
"2002-07-07 02:00:00",22.2299995422,0.171000003815,91.8000030518,7.98999977112,7.09999990463,10.6999998093,12.5399999619
"2002-07-07 03:00:00",21.8600006104,0.0130000002682,91.9000015259,8.06000041962,7.05999994278,9.10000038147,12.5200004578
"2002-07-07 04:00:00",21.5699996948,0.187000006437,91.8000030518,8.09000015259,7.11000013351,8.60000038147,12.5
"2002-07-07 05:00:00",21.3099994659,0.173999994993,92.0999984741,8.15999984741,7.07999992371,9.89999961853,12.4799995422
"2002-07-07 06:00:00",21.0699996948,0.167999997735,92.4000015259,8.22999954224,7.07999992371,10.6000003815,12.4600000381
"2002-07-07 07:00:00",20.8500003815,0.162000000477,93.4000015259,8.35000038147,7.07000017166,12.3999996185,12.4399995804
"2002-07-07 08:00:00",20.7999992371,0.166999995708,94.0999984741,8.40999984741,7.07000017166,12.6000003815,12.4399995804
"2002-07-07 09:00:00",20.9599990845,0.180000007153,94.6999969482,8.44999980927,7.11000013351,11.8999996185,12.529999733
"2002-07-07 10:00:00",21.2999992371,0.17499999702,95.9000015259,8.48999977112,7.15000009537,13.5,13.1099996567
"2002-07-07 11:00:00",21.8799991608,0.16400000453,98.4000015259,8.61999988556,7.17000007629,14.6000003815,13.1199998856
"2002-07-07 12:00:00",22.7700004578,0.163000002503,100.0,8.60999965668,7.21000003815,15.3999996185,13.0399999619
"2002-07-07 13:00:00",23.3999996185,0.0839999988675,100.800003052,8.57999992371,7.23000001907,14.3000001907,12.8999996185
"2002-07-07 14:00:00",23.8600006104,0.181999996305,100.900001526,8.51000022888,7.23000001907,12.3999996185,12.9799995422
"2002-07-07 15:00:00",24.1599998474,0.172999992967,98.3000030518,8.25,7.21000003815,14.6999998093,12.8699998856
"2002-07-07 16:00:00",24.0900001526,0.166999995708,97.8000030518,8.22000026703,7.19999980927,12.8999996185,12.9600000381
"2002-07-07 17:00:00",24.1000003815,0.167999997735,96.1999969482,8.07999992371,7.19000005722,12.6000003815,12.8100004196
"2002-07-07 18:00:00",24.1299991608,0.171000003815,94.5999984741,7.94000005722,7.17999982834,11.0,12.7700004578
"2002-07-07 19:00:00",24.0400009155,0.17499999702,92.8000030518,7.80000019073,7.17999982834,10.3999996185,12.6999998093
"2002-07-07 20:00:00",24.0200004578,0.16099999845,92.0,7.73999977112,7.11000013351,11.8999996185,12.6700000763
"2002-07-07 21:00:00",23.8999996185,0.156000003219,91.3000030518,7.69999980927,7.07999992371,13.6000003815,12.6400003433
"2002-07-07 22:00:00",23.5900001526,0.162000000477,91.6999969482,7.76999998093,7.05000019073,13.8000001907,12.6199998856
"2002-07-07 23:00:00",23.2800006866,0.171000003815,91.1999969482,7.78000020981,7.09000015259,11.8000001907,12.6000003815
"2002-07-08 00:00:00",22.9799995422,0.168999999762,91.5,7.84999990463,7.11000013351,12.1999998093,12.5900001526
"2002-07-08 01:00:00",22.7000007629,0.16099999845,92.0,7.94000005722,7.09999990463,14.1000003815,12.5799999237
"2002-07-08 02:00:00",22.4500007629,0.159999996424,92.5,8.01000022888,7.07999992371,14.3999996185,12.5600004196
"2002-07-08 03:00:00",22.1200008392,0.0010000000475,92.6999969482,8.07999992371,7.07000017166,13.6999998093,12.529999733
"2002-07-08 04:00:00",21.8299999237,0.0010000000475,92.3000030518,8.09000015259,7.09000015259,13.1000003815,12.5200004578
"2002-07-08 05:00:00",21.3400001526,0.0010000000475,91.9000015259,8.14000034332,7.13999986649,10.3999996185,12.5
"2002-07-08 06:00:00",20.6100006104,0.0010000000475,92.0999984741,8.27999973297,7.13999986649,9.19999980927,12.470000267
"2002-07-08 07:00:00",21.1900005341,0.00200000009499,91.5999984741,8.14000034332,7.15000009537,11.0,12.4399995804
"2002-07-08 08:00:00",21.0599994659,0.0010000000475,93.5999984741,8.34000015259,7.13000011444,10.8000001907,12.5200004578
"2002-07-08 09:00:00",21.0900001526,0.0010000000475,95.4000015259,8.5,7.19000005722,9.30000019073,12.7399997711
"2002-07-08 10:00:00",21.5300006866,0.0010000000475,96.5,8.51000022888,7.23999977112,7.59999990463,13.2100000381
"2002-07-08 11:00:00",21.9400005341,0.00200000009499,97.5,8.53999996185,7.21999979019,5.59999990463,13.1400003433
"2002-07-08 12:00:00",22.5699996948,0.0010000000475,100.5,8.68999958038,7.32000017166,4.90000009537,13.0699996948
"2002-07-08 13:00:00",23.1700000763,0.187999993563,101.699996948,8.69999980927,7.28000020981,4.40000009537,13.0200004578
"2002-07-08 14:00:00",23.6800003052,0.00300000002608,102.300003052,8.67000007629,7.30999994278,3.20000004768,12.9899997711
"2002-07-08 15:00:00",24.0200004578,0.0489999987185,102.199996948,8.60000038147,7.32000017166,2.20000004768,12.9499998093
"2002-07-08 16:00:00",24.0499992371,0.00200000009499,99.8000030518,8.39000034332,7.30000019073,1.70000004768,12.9499998093
"2002-07-08 17:00:00",23.9899997711,0.138999998569,97.3000030518,8.18999958038,7.30999994278,2.90000009537,12.8299999237
"2002-07-08 18:00:00",23.8199996948,0.177000001073,95.5999984741,8.06999969482,7.26000022888,4.40000009537,12.7899999619
"2002-07-08 19:00:00",23.5599994659,0.00600000005215,92.9000015259,7.88999986649,7.21999979019,5.69999980927,12.7100000381
"2002-07-08 20:00:00",23.5200004578,0.00499999988824,90.8000030518,7.71000003815,7.19000005722,4.80000019073,12.6800003052
"2002-07-08 21:00:00",23.2999992371,0.188999995589,88.5,7.55000019073,7.15000009537,4.90000009537,12.6499996185
"2002-07-08 22:00:00",23.0400009155,0.180000007153,88.5,7.59000015259,7.13000011444,7.19999980927,12.6300001144
"2002-07-08 23:00:00",22.7800006866,0.170000001788,89.1999969482,7.67999982834,7.09999990463,9.0,12.6099996567
"2002-07-09 00:00:00",22.4400005341,0.16400000453,90.8000030518,7.86999988556,7.11000013351,11.6000003815,12.6000003815
"2002-07-09 01:00:00",22.1700000763,0.168999999762,91.4000015259,7.96000003815,7.09999990463,14.0,12.5799999237
"2002-07-09 02:00:00",22.0400009155,0.172999992967,91.4000015259,7.98000001907,7.11999988556,14.8999996185,12.5600004196
"2002-07-09 03:00:00",21.9500007629,0.166999995708,91.6999969482,8.02000045776,7.13999986649,16.7999992371,12.5399999619
"2002-07-09 04:00:00",21.8299999237,0.157000005245,92.3000030518,8.10000038147,7.09999990463,19.6000003815,12.5399999619
"2002-07-09 05:00:00",21.7299995422,0.00300000002608,92.5,8.13000011444,7.11999988556,20.2000007629,12.5200004578
"2002-07-09 06:00:00",21.6399993896,0.00200000009499,92.3000030518,8.11999988556,7.11999988556,20.5,12.4899997711
"2002-07-09 07:00:00",21.5799999237,0.00800000037998,92.1999969482,8.13000011444,7.11999988556,19.6000003815,12.470000267
"2002-07-09 08:00:00",21.6399993896,0.0010000000475,93.4000015259,8.22999954224,7.13000011444,18.3999996185,12.4899997711
"2002-07-09 09:00:00",21.8600006104,0.0010000000475,94.6999969482,8.31000041962,7.17999982834,15.6999998093,12.6599998474